Time,TemperatureF,DewpointF,PressureIn,WindDirection,WindDirectionDegrees,WindSpeedMPH,WindSpeedGustMPH,Humidity,HourlyPrecipIn,Conditions,Clouds,dailyrainin,SoftwareType,DateUTC
2013-05-26 00:00:00,48.7,34.6,30.19,West,260,1.0,1.0,58,0.00,,,0.00,Wunderground v.1.15,2013-05-26 04:00:00,
2013-05-26 00:05:00,48.7,35.0,30.19,NW,314,1.0,1.0,59,0.00,,,0.00,Wunderground v.1.15,2013-05-26 04:05:00,
2013-05-26 00:10:00,48.4,34.7,30.19,NW,319,1.0,1.0,59,0.00,,,0.00,Wunderground v.1.15,2013-05-26 04:10:00,
2013-05-26 00:20:00,48.2,35.0,30.20,NNE,28,1.0,1.0,60,0.00,,,0.00,Wunderground v.1.15,2013-05-26 04:20:00,
2013-05-26 00:25:00,48.1,34.9,30.20,WNW,288,1.0,1.0,60,0.00,,,0.00,Wunderground v.1.15,2013-05-26 04:25:00,
2013-05-26 00:35:00,47.8,35.0,30.20,NNE,22,1.0,2.0,61,0.00,,,0.00,Wunderground v.1.15,2013-05-26 04:35:00,
2013-05-26 00:40:00,47.8,35.0,30.20,WNW,287,1.0,1.0,61,0.00,,,0.00,Wunderground v.1.15,2013-05-26 04:40:00,
2013-05-26 00:50:00,47.5,35.1,30.19,North,359,0.0,2.0,62,0.00,,,0.00,Wunderground v.1.15,2013-05-26 04:50:00,
2013-05-26 01:00:00,47.4,35.4,30.19,NNW,338,1.0,1.0,63,0.00,,,0.00,Wunderground v.1.15,2013-05-26 05:00:00,
2013-05-26 01:05:00,47.3,35.3,30.19,North,6,2.0,2.0,63,0.00,,,0.00,Wunderground v.1.15,2013-05-26 05:05:00,
2013-05-26 01:15:00,47.2,35.2,30.19,NNW,329,1.0,2.0,63,0.00,,,0.00,Wunderground v.1.15,2013-05-26 05:15:00,
2013-05-26 01:20:00,47.1,35.1,30.19,North,5,1.0,1.0,63,0.00,,,0.00,Wunderground v.1.15,2013-05-26 05:20:00,
2013-05-26 01:30:00,46.9,35.4,30.19,NE,50,1.0,1.0,64,0.00,,,0.00,Wunderground v.1.15,2013-05-26 05:30:00,
2013-05-26 01:40:00,46.6,35.5,30.19,NNE,13,1.0,1.0,65,0.00,,,0.00,Wunderground v.1.15,2013-05-26 05:40:00,
2013-05-26 01:50:00,46.5,35.7,30.19,NW,318,1.0,1.0,66,0.00,,,0.00,Wunderground v.1.15,2013-05-26 05:50:00,
2013-05-26 02:00:00,46.3,35.9,30.19,NNW,338,0.0,2.0,67,0.00,,,0.00,Wunderground v.1.15,2013-05-26 06:00:00,
2013-05-26 02:10:00,46.1,36.1,30.19,NNW,333,1.0,1.0,68,0.00,,,0.00,Wunderground v.1.15,2013-05-26 06:10:00,
2013-05-26 02:20:00,46.2,36.2,30.18,SW,219,1.0,1.0,68,0.00,,,0.00,Wunderground v.1.15,2013-05-26 06:20:00,
2013-05-26 02:30:00,46.1,36.1,30.18,WNW,290,1.0,1.0,68,0.00,,,0.00,Wunderground v.1.15,2013-05-26 06:30:00,
2013-05-26 02:35:00,46.0,36.0,30.18,NNW,335,1.0,1.0,68,0.00,,,0.00,Wunderground v.1.15,2013-05-26 06:35:00,
2013-05-26 02:45:00,45.7,36.1,30.18,NW,325,0.0,1.0,69,0.00,,,0.00,Wunderground v.1.15,2013-05-26 06:45:00,
2013-05-26 02:55:00,45.2,36.4,30.18,SW,235,0.0,0.0,71,0.00,,,0.00,Wunderground v.1.15,2013-05-26 06:55:00,
2013-05-26 03:00:00,45.1,36.3,30.18,WSW,252,0.0,0.0,71,0.00,,,0.00,Wunderground v.1.15,2013-05-26 07:00:00,
2013-05-26 03:05:00,45.0,36.2,30.18,North,353,0.0,2.0,71,0.00,,,0.00,Wunderground v.1.15,2013-05-26 07:05:00,
2013-05-26 03:15:00,44.9,36.1,30.18,NNW,331,0.0,0.0,71,0.00,,,0.00,Wunderground v.1.15,2013-05-26 07:15:00,
2013-05-26 03:20:00,44.8,36.0,30.18,NW,321,0.0,0.0,71,0.00,,,0.00,Wunderground v.1.15,2013-05-26 07:20:00,
2013-05-26 03:30:00,44.5,36.4,30.18,NW,312,0.0,0.0,73,0.00,,,0.00,Wunderground v.1.15,2013-05-26 07:30:00,
2013-05-26 03:35:00,44.4,36.3,30.18,NNW,327,0.0,0.0,73,0.00,,,0.00,Wunderground v.1.15,2013-05-26 07:35:00,
2013-05-26 03:40:00,44.3,36.2,30.18,NW,322,0.0,0.0,73,0.00,,,0.00,Wunderground v.1.15,2013-05-26 07:40:00,
2013-05-26 03:50:00,44.2,36.4,30.18,NW,312,0.0,0.0,74,0.00,,,0.00,Wunderground v.1.15,2013-05-26 07:50:00,
2013-05-26 03:55:00,44.0,36.6,30.18,NW,309,0.0,0.0,75,0.00,,,0.00,Wunderground v.1.15,2013-05-26 07:55:00,
2013-05-26 04:05:00,43.7,36.6,30.18,WNW,288,0.0,0.0,76,0.00,,,0.00,Wunderground v.1.15,2013-05-26 08:05:00,
2013-05-26 04:10:00,43.5,36.4,30.18,East,84,0.0,0.0,76,0.00,,,0.00,Wunderground v.1.15,2013-05-26 08:10:00,
2013-05-26 04:15:00,43.2,36.5,30.18,WNW,292,0.0,0.0,77,0.00,,,0.00,Wunderground v.1.15,2013-05-26 08:15:00,
2013-05-26 04:25:00,43.2,36.8,30.18,WNW,283,0.0,0.0,78,0.00,,,0.00,Wunderground v.1.15,2013-05-26 08:25:00,
2013-05-26 04:35:00,43.2,36.8,30.18,NNW,338,0.0,0.0,78,0.00,,,0.00,Wunderground v.1.15,2013-05-26 08:35:00,
2013-05-26 04:45:00,43.0,36.6,30.18,NNW,329,0.0,0.0,78,0.00,,,0.00,Wunderground v.1.15,2013-05-26 08:45:00,
2013-05-26 04:55:00,43.0,36.9,30.18,WNW,299,0.0,3.0,79,0.00,,,0.00,Wunderground v.1.15,2013-05-26 08:55:00,
2013-05-26 05:01:00,43.1,37.0,30.18,NNW,338,0.0,0.0,79,0.00,,,0.00,Wunderground v.1.15,2013-05-26 09:01:00,
2013-05-26 05:10:00,42.9,36.8,30.19,WNW,292,0.0,0.0,79,0.00,,,0.00,Wunderground v.1.15,2013-05-26 09:10:00,
2013-05-26 05:20:00,42.5,36.8,30.19,NNW,338,0.0,0.0,80,0.00,,,0.00,Wunderground v.1.15,2013-05-26 09:20:00,
2013-05-26 05:30:00,42.4,37.0,30.19,West,274,0.0,1.0,81,0.00,,,0.00,Wunderground v.1.15,2013-05-26 09:30:00,
2013-05-26 05:40:00,42.4,37.0,30.19,West,259,0.0,0.0,81,0.00,,,0.00,Wunderground v.1.15,2013-05-26 09:40:00,
2013-05-26 05:45:00,42.4,37.0,30.20,West,264,0.0,0.0,81,0.00,,,0.00,Wunderground v.1.15,2013-05-26 09:45:00,
2013-05-26 05:50:00,42.4,37.0,30.20,WNW,300,0.0,0.0,81,0.00,,,0.00,Wunderground v.1.15,2013-05-26 09:50:00,
2013-05-26 06:00:00,42.4,37.0,30.20,West,262,0.0,0.0,81,0.00,,,0.00,Wunderground v.1.15,2013-05-26 10:00:00,
2013-05-26 06:10:00,42.6,37.2,30.21,NW,324,0.0,0.0,81,0.00,,,0.00,Wunderground v.1.15,2013-05-26 10:10:00,
2013-05-26 06:20:00,42.8,37.1,30.21,NW,314,0.0,2.0,80,0.00,,,0.00,Wunderground v.1.15,2013-05-26 10:20:00,
2013-05-26 06:30:00,43.2,37.4,30.21,East,82,1.0,1.0,80,0.00,,,0.00,Wunderground v.1.15,2013-05-26 10:30:00,
2013-05-26 06:35:00,43.4,37.3,30.21,WNW,295,1.0,1.0,79,0.00,,,0.00,Wunderground v.1.15,2013-05-26 10:35:00,
2013-05-26 06:45:00,43.8,37.7,30.22,WNW,302,1.0,1.0,79,0.00,,,0.00,Wunderground v.1.15,2013-05-26 10:45:00,
2013-05-26 06:50:00,44.1,37.7,30.22,NNW,341,1.0,1.0,78,0.00,,,0.00,Wunderground v.1.15,2013-05-26 10:50:00,
2013-05-26 06:55:00,44.4,38.0,30.22,NW,314,0.0,1.0,78,0.00,,,0.00,Wunderground v.1.15,2013-05-26 10:55:00,
2013-05-26 07:05:00,45.1,38.0,30.22,NW,321,1.0,2.0,76,0.00,,,0.00,Wunderground v.1.15,2013-05-26 11:05:00,
2013-05-26 07:15:00,45.6,38.1,30.22,NW,316,1.0,3.0,75,0.00,,,0.00,Wunderground v.1.15,2013-05-26 11:15:00,
2013-05-26 07:20:00,45.8,38.3,30.22,SW,226,1.0,1.0,75,0.00,,,0.00,Wunderground v.1.15,2013-05-26 11:20:00,
2013-05-26 07:30:00,46.4,38.6,30.22,NW,305,1.0,2.0,74,0.00,,,0.00,Wunderground v.1.15,2013-05-26 11:30:00,
2013-05-26 07:40:00,47.0,38.8,30.22,WSW,246,2.0,2.0,73,0.00,,,0.00,Wunderground v.1.15,2013-05-26 11:40:00,
2013-05-26 07:50:00,48.2,39.2,30.22,WSW,246,1.0,2.0,71,0.00,,,0.00,Wunderground v.1.15,2013-05-26 11:50:00,
2013-05-26 07:55:00,48.9,39.5,30.22,SW,235,1.0,2.0,70,0.00,,,0.00,Wunderground v.1.15,2013-05-26 11:55:00,
2013-05-26 08:00:00,49.8,39.7,30.22,West,277,0.0,0.0,68,0.00,,,0.00,Wunderground v.1.15,2013-05-26 12:00:00,
2013-05-26 08:10:00,50.3,38.6,30.23,North,1,1.0,3.0,64,0.00,,,0.00,Wunderground v.1.15,2013-05-26 12:10:00,
2013-05-26 08:20:00,51.0,38.8,30.23,NNE,32,1.0,4.0,63,0.00,,,0.00,Wunderground v.1.15,2013-05-26 12:20:00,
2013-05-26 08:30:00,51.2,39.4,30.23,NNW,331,2.0,2.0,64,0.00,,,0.00,Wunderground v.1.15,2013-05-26 12:30:00,
2013-05-26 08:40:00,52.3,38.8,30.23,NNW,342,1.0,1.0,60,0.00,,,0.00,Wunderground v.1.15,2013-05-26 12:40:00,
2013-05-26 08:50:00,52.8,38.9,30.24,NW,321,2.0,2.0,59,0.00,,,0.00,Wunderground v.1.15,2013-05-26 12:50:00,
2013-05-26 08:55:00,53.4,39.4,30.24,ENE,77,2.0,2.0,59,0.00,,,0.00,Wunderground v.1.15,2013-05-26 12:55:00,
2013-05-26 09:05:00,54.1,39.2,30.24,NNW,342,1.0,3.0,57,0.00,,,0.00,Wunderground v.1.15,2013-05-26 13:05:00,
2013-05-26 09:15:00,54.5,38.7,30.24,ENE,71,2.0,2.0,55,0.00,,,0.00,Wunderground v.1.15,2013-05-26 13:15:00,
2013-05-26 09:25:00,55.6,38.7,30.24,NW,311,1.0,5.0,53,0.00,,,0.00,Wunderground v.1.15,2013-05-26 13:25:00,
2013-05-26 09:35:00,56.0,37.6,30.23,NW,325,2.0,2.0,50,0.00,,,0.00,Wunderground v.1.15,2013-05-26 13:35:00,
2013-05-26 09:40:00,56.2,36.8,30.24,ENE,72,2.0,2.0,48,0.00,,,0.00,Wunderground v.1.15,2013-05-26 13:40:00,
2013-05-26 09:50:00,56.2,36.2,30.23,NE,50,3.0,3.0,47,0.00,,,0.00,Wunderground v.1.15,2013-05-26 13:50:00,
2013-05-26 10:00:00,56.6,36.6,30.23,NNE,17,2.0,3.0,47,0.00,,,0.00,Wunderground v.1.15,2013-05-26 14:00:00,
2013-05-26 10:05:00,56.5,36.0,30.23,NW,318,2.0,3.0,46,0.00,,,0.00,Wunderground v.1.15,2013-05-26 14:05:00,
2013-05-26 10:10:00,56.9,36.3,30.23,NNE,32,3.0,3.0,46,0.00,,,0.00,Wunderground v.1.15,2013-05-26 14:10:00,
2013-05-26 10:15:00,57.0,35.3,30.23,NNW,346,3.0,3.0,44,0.00,,,0.00,Wunderground v.1.15,2013-05-26 14:15:00,
2013-05-26 10:25:00,56.9,35.8,30.23,SSW,212,3.0,3.0,45,0.00,,,0.00,Wunderground v.1.15,2013-05-26 14:25:00,
2013-05-26 10:35:00,57.9,34.3,30.23,NW,317,3.0,7.0,41,0.00,,,0.00,Wunderground v.1.15,2013-05-26 14:35:00,
2013-05-26 10:45:00,57.4,35.1,30.23,ENE,63,4.0,4.0,43,0.00,,,0.00,Wunderground v.1.15,2013-05-26 14:45:00,
2013-05-26 10:55:00,57.8,33.6,30.23,West,271,3.0,3.0,40,0.00,,,0.00,Wunderground v.1.15,2013-05-26 14:55:00,
2013-05-26 11:00:00,58.1,33.9,30.23,NE,34,3.0,7.0,40,0.00,,,0.00,Wunderground v.1.15,2013-05-26 15:00:00,
2013-05-26 11:10:00,57.8,32.3,30.23,North,354,4.0,4.0,38,0.00,,,0.00,Wunderground v.1.15,2013-05-26 15:10:00,
2013-05-26 11:20:00,57.8,32.3,30.23,NNW,334,4.0,4.0,38,0.00,,,0.00,Wunderground v.1.15,2013-05-26 15:20:00,
2013-05-26 11:30:00,58.0,32.5,30.24,North,358,4.0,7.0,38,0.00,,,0.00,Wunderground v.1.15,2013-05-26 15:30:00,
2013-05-26 11:35:00,58.1,32.6,30.24,NNW,342,4.0,7.0,38,0.00,,,0.00,Wunderground v.1.15,2013-05-26 15:35:00,
2013-05-26 11:45:00,57.9,33.1,30.24,North,355,5.0,9.0,39,0.00,,,0.00,Wunderground v.1.15,2013-05-26 15:45:00,
2013-05-26 11:50:00,58.1,32.6,30.24,SSE,167,5.0,5.0,38,0.00,,,0.00,Wunderground v.1.15,2013-05-26 15:50:00,
2013-05-26 11:55:00,58.4,32.9,30.25,WSW,238,4.0,5.0,38,0.00,,,0.00,Wunderground v.1.15,2013-05-26 15:55:00,
2013-05-26 12:05:00,58.3,32.1,30.25,WNW,292,4.0,4.0,37,0.00,,,0.00,Wunderground v.1.15,2013-05-26 16:05:00,
2013-05-26 12:10:00,58.9,32.7,30.25,North,3,3.0,3.0,37,0.00,,,0.00,Wunderground v.1.15,2013-05-26 16:10:00,
2013-05-26 12:20:00,59.1,33.5,30.25,NNW,327,3.0,3.0,38,0.00,,,0.00,Wunderground v.1.15,2013-05-26 16:20:00,
2013-05-26 12:30:00,59.1,32.1,30.24,NNE,13,3.0,4.0,36,0.00,,,0.00,Wunderground v.1.15,2013-05-26 16:30:00,
2013-05-26 12:40:00,60.1,33.0,30.24,North,360,3.0,3.0,36,0.00,,,0.00,Wunderground v.1.15,2013-05-26 16:40:00,
2013-05-26 12:50:00,59.5,31.1,30.24,NW,316,4.0,4.0,34,0.00,,,0.00,Wunderground v.1.15,2013-05-26 16:50:00,
2013-05-26 12:55:00,59.1,30.7,30.24,NNW,341,5.0,5.0,34,0.00,,,0.00,Wunderground v.1.15,2013-05-26 16:55:00,
2013-05-26 13:05:00,60.4,30.4,30.24,SW,236,3.0,4.0,32,0.00,,,0.00,Wunderground v.1.15,2013-05-26 17:05:00,
2013-05-26 13:15:00,60.8,30.7,30.24,NW,323,3.0,4.0,32,0.00,,,0.00,Wunderground v.1.15,2013-05-26 17:15:00,
2013-05-26 13:25:00,61.1,31.0,30.24,West,281,4.0,5.0,32,0.00,,,0.00,Wunderground v.1.15,2013-05-26 17:25:00,
2013-05-26 13:30:00,61.1,31.0,30.24,WSW,254,4.0,4.0,32,0.00,,,0.00,Wunderground v.1.15,2013-05-26 17:30:00,
2013-05-26 13:35:00,61.3,33.4,30.24,NNE,23,3.0,4.0,35,0.00,,,0.00,Wunderground v.1.15,2013-05-26 17:35:00,
2013-05-26 13:45:00,61.8,30.0,30.24,ENE,62,3.0,3.0,30,0.00,,,0.00,Wunderground v.1.15,2013-05-26 17:45:00,
2013-05-26 13:55:00,61.9,31.7,30.24,SW,215,3.0,5.0,32,0.00,,,0.00,Wunderground v.1.15,2013-05-26 17:55:00,
2013-05-26 14:01:00,62.2,31.2,30.24,SW,228,3.0,3.0,31,0.00,,,0.00,Wunderground v.1.15,2013-05-26 18:01:00,
2013-05-26 14:10:00,62.3,30.4,30.24,NE,37,3.0,4.0,30,0.00,,,0.00,Wunderground v.1.15,2013-05-26 18:10:00,
2013-05-26 14:15:00,62.4,30.5,30.24,NW,317,3.0,4.0,30,0.00,,,0.00,Wunderground v.1.15,2013-05-26 18:15:00,
2013-05-26 14:20:00,62.8,30.9,30.24,WNW,288,3.0,3.0,30,0.00,,,0.00,Wunderground v.1.15,2013-05-26 18:20:00,
2013-05-26 14:30:00,62.8,29.2,30.23,WSW,256,3.0,3.0,28,0.00,,,0.00,Wunderground v.1.15,2013-05-26 18:30:00,
2013-05-26 14:40:00,62.9,31.8,30.23,NNW,346,3.0,3.0,31,0.00,,,0.00,Wunderground v.1.15,2013-05-26 18:40:00,
2013-05-26 14:50:00,63.2,29.5,30.22,NNE,17,3.0,3.0,28,0.00,,,0.00,Wunderground v.1.15,2013-05-26 18:50:00,
2013-05-26 14:55:00,63.3,30.5,30.22,SSW,197,3.0,3.0,29,0.00,,,0.00,Wunderground v.1.15,2013-05-26 18:55:00,
2013-05-26 15:05:00,64.2,31.3,30.22,West,263,3.0,7.0,29,0.00,,,0.00,Wunderground v.1.15,2013-05-26 19:05:00,
2013-05-26 15:15:00,63.9,31.0,30.22,North,5,3.0,4.0,29,0.00,,,0.00,Wunderground v.1.15,2013-05-26 19:15:00,
2013-05-26 15:25:00,64.6,31.6,30.22,NNW,338,3.0,7.0,29,0.00,,,0.00,Wunderground v.1.15,2013-05-26 19:25:00,
2013-05-26 15:35:00,64.1,30.3,30.22,ENE,61,3.0,4.0,28,0.00,,,0.00,Wunderground v.1.15,2013-05-26 19:35:00,
2013-05-26 15:40:00,64.1,31.2,30.21,North,1,4.0,4.0,29,0.00,,,0.00,Wunderground v.1.15,2013-05-26 19:40:00,
2013-05-26 15:50:00,64.5,30.6,30.22,NW,324,4.0,4.0,28,0.00,,,0.00,Wunderground v.1.15,2013-05-26 19:50:00,
2013-05-26 15:55:00,64.4,31.4,30.22,ENE,77,4.0,4.0,29,0.00,,,0.00,Wunderground v.1.15,2013-05-26 19:55:00,
2013-05-26 16:00:00,64.8,30.9,30.22,SSE,148,4.0,4.0,28,0.00,,,0.00,Wunderground v.1.15,2013-05-26 20:00:00,
2013-05-26 16:10:00,64.5,35.5,30.22,WSW,246,4.0,4.0,34,0.00,,,0.00,Wunderground v.1.15,2013-05-26 20:10:00,
2013-05-26 16:20:00,64.1,38.6,30.21,ESE,122,2.0,4.0,39,0.00,,,0.00,Wunderground v.1.15,2013-05-26 20:20:00,
2013-05-26 16:25:00,64.0,37.9,30.21,WSW,245,2.0,4.0,38,0.00,,,0.00,Wunderground v.1.15,2013-05-26 20:25:00,
2013-05-26 16:35:00,63.5,38.1,30.21,South,188,3.0,3.0,39,0.00,,,0.00,Wunderground v.1.15,2013-05-26 20:35:00,
2013-05-26 16:45:00,63.6,38.2,30.22,West,280,3.0,4.0,39,0.00,,,0.00,Wunderground v.1.15,2013-05-26 20:45:00,
2013-05-26 16:50:00,63.7,38.3,30.21,SW,235,2.0,3.0,39,0.00,,,0.00,Wunderground v.1.15,2013-05-26 20:50:00,
2013-05-26 17:00:00,64.1,38.0,30.21,SW,229,3.0,3.0,38,0.00,,,0.00,Wunderground v.1.15,2013-05-26 21:00:00,
2013-05-26 17:10:00,63.8,37.7,30.21,ESE,107,3.0,3.0,38,0.00,,,0.00,Wunderground v.1.15,2013-05-26 21:10:00,
2013-05-26 17:20:00,62.9,37.5,30.21,WNW,293,4.0,4.0,39,0.00,,,0.00,Wunderground v.1.15,2013-05-26 21:20:00,
2013-05-26 17:25:00,63.0,37.6,30.21,South,172,3.0,4.0,39,0.00,,,0.00,Wunderground v.1.15,2013-05-26 21:25:00,
2013-05-26 17:35:00,63.1,37.1,30.21,South,188,3.0,3.0,38,0.00,,,0.00,Wunderground v.1.15,2013-05-26 21:35:00,
2013-05-26 17:45:00,62.9,37.5,30.20,SW,214,3.0,3.0,39,0.00,,,0.00,Wunderground v.1.15,2013-05-26 21:45:00,
2013-05-26 17:50:00,62.7,37.4,30.20,SW,233,3.0,3.0,39,0.00,,,0.00,Wunderground v.1.15,2013-05-26 21:50:00,
2013-05-26 17:55:00,62.8,38.1,30.20,West,265,2.0,3.0,40,0.00,,,0.00,Wunderground v.1.15,2013-05-26 21:55:00,
2013-05-26 18:05:00,62.6,37.9,30.20,SSW,212,3.0,4.0,40,0.00,,,0.00,Wunderground v.1.15,2013-05-26 22:05:00,
2013-05-26 18:15:00,62.3,38.3,30.20,SSW,203,3.0,3.0,41,0.00,,,0.00,Wunderground v.1.15,2013-05-26 22:15:00,
2013-05-26 18:25:00,61.8,38.4,30.20,SSE,158,3.0,3.0,42,0.00,,,0.00,Wunderground v.1.15,2013-05-26 22:25:00,
2013-05-26 18:35:00,61.7,40.7,30.20,South,190,2.0,3.0,46,0.00,,,0.00,Wunderground v.1.15,2013-05-26 22:35:00,
2013-05-26 18:40:00,61.2,41.3,30.20,SW,219,2.0,2.0,48,0.00,,,0.00,Wunderground v.1.15,2013-05-26 22:40:00,
2013-05-26 18:45:00,60.6,41.8,30.20,SSE,160,3.0,3.0,50,0.00,,,0.00,Wunderground v.1.15,2013-05-26 22:45:00,
2013-05-26 18:55:00,60.8,39.9,30.20,SSE,167,2.0,2.0,46,0.00,,,0.00,Wunderground v.1.15,2013-05-26 22:55:00,
2013-05-26 19:00:00,60.9,40.5,30.20,SW,235,2.0,4.0,47,0.00,,,0.00,Wunderground v.1.15,2013-05-26 23:00:00,
2013-05-26 19:05:00,60.9,40.5,30.20,SSW,210,2.0,4.0,47,0.00,,,0.00,Wunderground v.1.15,2013-05-26 23:05:00,
2013-05-26 19:15:00,60.0,40.8,30.20,SSW,205,2.0,2.0,49,0.00,,,0.00,Wunderground v.1.15,2013-05-26 23:15:00,
2013-05-26 19:20:00,59.7,41.0,30.20,SSW,208,1.0,1.0,50,0.00,,,0.00,Wunderground v.1.15,2013-05-26 23:20:00,
2013-05-26 19:30:00,59.3,40.7,30.20,WSW,254,0.0,1.0,50,0.00,,,0.00,Wunderground v.1.15,2013-05-26 23:30:00,
2013-05-26 19:40:00,59.1,32.1,30.20,NNW,345,1.0,1.0,36,0.00,,,0.00,Wunderground v.1.15,2013-05-26 23:40:00,
2013-05-26 19:45:00,59.0,30.6,30.20,North,358,1.0,1.0,34,0.00,,,0.00,Wunderground v.1.15,2013-05-26 23:45:00,
2013-05-26 19:55:00,58.7,29.6,30.20,North,1,1.0,2.0,33,0.00,,,0.00,Wunderground v.1.15,2013-05-26 23:55:00,
2013-05-26 20:00:00,58.5,29.5,30.20,WSW,256,1.0,1.0,33,0.00,,,0.00,Wunderground v.1.15,2013-05-27 00:00:00,
2013-05-26 20:10:00,58.2,29.9,30.20,East,94,1.0,1.0,34,0.00,,,0.00,Wunderground v.1.15,2013-05-27 00:10:00,
2013-05-26 20:20:00,57.7,29.5,30.20,North,354,0.0,0.0,34,0.00,,,0.00,Wunderground v.1.15,2013-05-27 00:20:00,
2013-05-26 20:30:00,57.2,29.8,30.20,NE,34,0.0,0.0,35,0.00,,,0.00,Wunderground v.1.15,2013-05-27 00:30:00,
2013-05-26 20:35:00,56.8,30.1,30.20,North,357,0.0,0.0,36,0.00,,,0.00,Wunderground v.1.15,2013-05-27 00:35:00,
2013-05-26 20:40:00,56.2,29.6,30.20,North,356,0.0,0.0,36,0.00,,,0.00,Wunderground v.1.15,2013-05-27 00:40:00,
2013-05-26 20:45:00,55.7,29.8,30.20,North,357,0.0,0.0,37,0.00,,,0.00,Wunderground v.1.15,2013-05-27 00:45:00,
2013-05-26 20:55:00,54.6,40.6,30.20,South,181,0.0,0.0,59,0.00,,,0.00,Wunderground v.1.15,2013-05-27 00:55:00,
2013-05-26 21:05:00,53.2,44.4,30.20,South,181,1.0,1.0,72,0.00,,,0.00,Wunderground v.1.15,2013-05-27 01:05:00,
2013-05-26 21:15:00,52.1,44.8,30.20,SSE,160,1.0,1.0,76,0.00,,,0.00,Wunderground v.1.15,2013-05-27 01:15:00,
2013-05-26 21:20:00,51.7,45.1,30.20,WSW,242,1.0,1.0,78,0.00,,,0.00,Wunderground v.1.15,2013-05-27 01:20:00,
2013-05-26 21:30:00,51.1,45.1,30.20,SSE,162,1.0,1.0,80,0.00,,,0.00,Wunderground v.1.15,2013-05-27 01:30:00,
2013-05-26 21:35:00,50.8,44.9,30.21,SW,215,1.0,1.0,80,0.00,,,0.00,Wunderground v.1.15,2013-05-27 01:35:00,
2013-05-26 21:40:00,50.6,45.0,30.21,SW,224,1.0,1.0,81,0.00,,,0.00,Wunderground v.1.15,2013-05-27 01:40:00,
2013-05-26 21:50:00,50.2,45.2,30.21,SW,229,0.0,0.0,83,0.00,,,0.00,Wunderground v.1.15,2013-05-27 01:50:00,
2013-05-26 21:55:00,50.1,45.1,30.21,SSE,148,1.0,1.0,83,0.00,,,0.00,Wunderground v.1.15,2013-05-27 01:55:00,
2013-05-26 22:00:00,50.0,45.4,30.21,SSW,200,0.0,0.0,84,0.00,,,0.00,Wunderground v.1.15,2013-05-27 02:00:00,
2013-05-26 22:05:00,49.7,45.1,30.21,SSE,152,0.0,0.0,84,0.00,,,0.00,Wunderground v.1.15,2013-05-27 02:05:00,
2013-05-26 22:10:00,49.5,45.2,30.21,SSE,153,0.0,0.0,85,0.00,,,0.00,Wunderground v.1.15,2013-05-27 02:10:00,
2013-05-26 22:15:00,49.2,44.9,30.21,SSE,155,0.0,0.0,85,0.00,,,0.00,Wunderground v.1.15,2013-05-27 02:15:00,
2013-05-26 22:25:00,48.9,44.9,30.21,SSE,150,0.0,0.0,86,0.00,,,0.00,Wunderground v.1.15,2013-05-27 02:25:00,
2013-05-26 22:35:00,48.3,44.6,30.21,SSE,152,0.0,0.0,87,0.00,,,0.00,Wunderground v.1.15,2013-05-27 02:35:00,
2013-05-26 22:40:00,48.0,44.6,30.21,SSE,153,0.0,0.0,88,0.00,,,0.00,Wunderground v.1.15,2013-05-27 02:40:00,
2013-05-26 22:45:00,47.9,44.5,30.22,SSE,153,0.0,0.0,88,0.00,,,0.00,Wunderground v.1.15,2013-05-27 02:45:00,
2013-05-26 22:55:00,47.9,45.1,30.22,SW,215,0.0,0.0,90,0.00,,,0.00,Wunderground v.1.15,2013-05-27 02:55:00,
2013-05-26 23:00:00,47.9,45.1,30.22,SW,215,0.0,0.0,90,0.00,,,0.00,Wunderground v.1.15,2013-05-27 03:00:00,
2013-05-26 23:10:00,48.1,45.3,30.22,SSW,205,1.0,1.0,90,0.00,,,0.00,Wunderground v.1.15,2013-05-27 03:10:00,
2013-05-26 23:20:00,48.0,45.2,30.22,SSE,152,0.0,0.0,90,0.00,,,0.00,Wunderground v.1.15,2013-05-27 03:20:00,
2013-05-26 23:30:00,48.0,45.2,30.22,SSE,149,0.0,0.0,90,0.00,,,0.00,Wunderground v.1.15,2013-05-27 03:30:00,
2013-05-26 23:40:00,47.8,45.0,30.22,SE,139,0.0,0.0,90,0.00,,,0.00,Wunderground v.1.15,2013-05-27 03:40:00,
2013-05-26 23:50:00,47.6,45.1,30.23,South,191,0.0,0.0,91,0.00,,,0.00,Wunderground v.1.15,2013-05-27 03:50:00,